Starlink 31428

operational
NORAD ID: 59367 Int'l Des: 2024-060 Owner: SPXS Country: US Constellation: starlink
LEOCIRCULAR

About Starlink 31428

Description loading...

Live Position

Loading 3D Globe...

Upcoming Passes

Altitude History

Altitude vs Time

uPlot chart will show altitude changes over time

Two-Line Element Set

1 59367U 24060V 25305.58899596 .00001667 00000-0 70093-4 0 9999
2 59367 43.0025 263.1138 0000313 282.6303 77.4513 15.27572790 90473
Epoch: Nov 1, 2025 • Age: 7 hours

Current Status

Altitude 486.9 km
Velocity 7.62 km/s
Sub-Earth Point -18.23°S, 100.85°E
Launch Date Mar 31, 2024
Age 1.5 years
Type internet

Technical Details

Classification Payload
Mass 730.00 kg
Dry Mass 700.00 kg
Total Mass 730.00 kg
Length 0.30 m
Diameter 4.10 m
Span 29.00 m
Shape Box + pan
Manufacturer SPXS
Bus Type Starlink V2M
Phase Status In Orbit
Owner/State SPXS/US

Large Constellations

Loading constellations...